Voltar ao catálogo

STARLINK-34622

AtivoComunicaçõesVLEO
NORAD 66015·PAYLOAD·🇺🇸 United States

Lançado Oct 16, 2025 de Cape Canaveral Space Force Station

Loading…

Próximas Passagens (próximas 24 horas)

TLE

AtualizadoSource: CelesTrak SupGP

Época: Sep 14, 2026, 22:39 UTC

1 66015C 25232L   26257.94423611  .00043102  00000+0  12732-2 0  2577
2 66015  53.1587 301.6224 0001124  84.6818  22.6111 15.34375348    17

Acompanhe STARLINK-34622 em tempo real com AllMySat

Download on the App Store